| time (UTC) | temp F | wind direction | speed MPH | gust MPH | rain 1hr in | rain 24hr in | rain mn in | humidity % | barometer mb |
| 20260507155400 | 57 | 123 | 6.0 | 9.0 | 0.00 | 0.00 | 0.00 | 37 | 1014.0 |
| 20260507154857 | 56 | 157 | 4.0 | 11.0 | 0.00 | 0.00 | 0.00 | 45 | 1014.0 |
| 20260507154354 | 56 | 80 | 5.0 | 8.0 | 0.00 | 0.00 | 0.00 | 43 | 1014.1 |
| 20260507153852 | 55 | 44 | 4.0 | 11.0 | 0.00 | 0.00 | 0.00 | 44 | 1014.1 |
| 20260507153348 | 56 | 138 | 3.0 | 10.0 | 0.00 | 0.00 | 0.00 | 46 | 1014.1 |
| 20260507152844 | 55 | 107 | 2.0 | 6.0 | 0.00 | 0.00 | 0.00 | 47 | 1014.1 |
| 20260507152341 | 55 | 149 | 4.0 | 8.0 | 0.00 | 0.00 | 0.00 | 43 | 1014.1 |
| 20260507151837 | 55 | 127 | 4.0 | 9.0 | 0.00 | 0.00 | 0.00 | 47 | 1013.9 |
| 20260507151333 | 54 | 128 | 2.0 | 7.0 | 0.00 | 0.00 | 0.00 | 45 | 1014.0 |
| 20260507150830 | 55 | 97 | 5.0 | 5.0 | 0.00 | 0.00 | 0.00 | 41 | 1014.0 |
| 20260507150327 | 56 | 232 | 5.0 | 5.0 | 0.00 | 0.00 | 0.00 | 50 | 1014.0 |
| 20260507145823 | 56 | 169 | 3.0 | 7.0 | 0.00 | 0.00 | 0.00 | 48 | 1014.0 |
| 20260507145319 | 55 | 110 | 5.0 | 9.0 | 0.00 | 0.00 | 0.00 | 48 | 1013.8 |
| 20260507144817 | 55 | 92 | 2.0 | 12.0 | 0.00 | 0.00 | 0.00 | 47 | 1014.1 |
| 20260507144314 | 54 | 120 | 7.0 | 8.0 | 0.00 | 0.00 | 0.00 | 53 | 1014.0 |
| 20260507143810 | 54 | 76 | 3.0 | 5.0 | 0.00 | 0.00 | 0.00 | 54 | 1014.2 |
| 20260507143308 | 54 | 137 | 5.0 | 6.0 | 0.00 | 0.00 | 0.00 | 51 | 1014.2 |
| 20260507142803 | 53 | 86 | 3.0 | 7.0 | 0.00 | 0.00 | 0.00 | 52 | 1014.2 |
| 20260507142300 | 53 | 79 | 7.0 | 9.0 | 0.00 | 0.00 | 0.00 | 47 | 1014.1 |
| 20260507141756 | 53 | 166 | 5.0 | 15.0 | 0.00 | 0.00 | 0.00 | 47 | 1014.0 |
| 20260507141254 | 52 | 128 | 2.0 | 5.0 | 0.00 | 0.00 | 0.00 | 47 | 1014.2 |
| 20260507140750 | 52 | 137 | 3.0 | 11.0 | 0.00 | 0.00 | 0.00 | 52 | 1014.1 |
| 20260507140247 | 52 | 124 | 6.0 | 8.0 | 0.00 | 0.00 | 0.00 | 46 | 1014.4 |
| 20260507135744 | 52 | 49 | 7.0 | 7.0 | 0.00 | 0.00 | 0.00 | 47 | 1014.2 |
| 20260507135242 | 52 | 127 | 4.0 | 10.0 | 0.00 | 0.00 | 0.00 | 53 | 1014.2 |
| 20260507134738 | 52 | 111 | 3.0 | 8.0 | 0.00 | 0.00 | 0.00 | 52 | 1014.2 |
| 20260507134234 | 52 | 187 | 3.0 | 9.0 | 0.00 | 0.00 | 0.00 | 55 | 1013.9 |
| 20260507133730 | 53 | 113 | 4.0 | 7.0 | 0.00 | 0.00 | 0.00 | 56 | 1014.2 |
| 20260507133227 | 54 | 93 | 3.0 | 8.0 | 0.00 | 0.00 | 0.00 | 53 | 1014.1 |
| 20260507132725 | 54 | 114 | 3.0 | 7.0 | 0.00 | 0.00 | 0.00 | 53 | 1014.2 |
| 20260507132222 | 53 | 136 | 4.0 | 7.0 | 0.00 | 0.00 | 0.00 | 55 | 1014.0 |
| 20260507131718 | 53 | 97 | 3.0 | 5.0 | 0.00 | 0.00 | 0.00 | 57 | 1014.0 |
| 20260507131216 | 53 | 104 | 3.0 | 7.0 | 0.00 | 0.00 | 0.00 | 53 | 1014.1 |
| 20260507130712 | 52 | 113 | 7.0 | 8.0 | 0.00 | 0.00 | 0.00 | 56 | 1014.0 |
| 20260507130210 | 51 | 94 | 4.0 | 5.0 | 0.00 | 0.00 | 0.00 | 60 | 1014.1 |
| 20260507125708 | 51 | 83 | 3.0 | 5.0 | 0.00 | 0.00 | 0.00 | 61 | 1014.2 |
| 20260507125206 | 51 | 85 | 2.0 | 5.0 | 0.00 | 0.00 | 0.00 | 59 | 1014.0 |
| 20260507124702 | 51 | 120 | 4.0 | 5.0 | 0.00 | 0.00 | 0.00 | 63 | 1013.9 |
| 20260507124159 | 50 | 117 | 4.0 | 6.0 | 0.00 | 0.00 | 0.00 | 67 | 1013.9 |
| 20260507123657 | 49 | 89 | 3.0 | 4.0 | 0.00 | 0.00 | 0.00 | 66 | 1014.2 |
| 20260507123154 | 48 | 101 | 3.0 | 4.0 | 0.00 | 0.00 | 0.00 | 68 | 1014.1 |
| 20260507122649 | 48 | 104 | 3.0 | 3.0 | 0.00 | 0.00 | 0.00 | 68 | 1014.2 |
| 20260507122145 | 47 | 88 | 3.0 | 4.0 | 0.00 | 0.00 | 0.00 | 69 | 1014.3 |
| 20260507121642 | 47 | 92 | 3.0 | 4.0 | 0.00 | 0.00 | 0.00 | 71 | 1014.3 |
| 20260507121138 | 47 | 110 | 4.0 | 4.0 | 0.00 | 0.00 | 0.00 | 72 | 1014.4 |
| 20260507120634 | 46 | 108 | 4.0 | 4.0 | 0.00 | 0.00 | 0.00 | 75 | 1014.4 |
| 20260507120131 | 44 | 110 | 4.0 | 5.0 | 0.00 | 0.00 | 0.00 | 79 | 1014.3 |
| 20260507115627 | 43 | 101 | 3.0 | 5.0 | 0.00 | 0.00 | 0.00 | 80 | 1014.2 |
| 20260507115123 | 43 | 106 | 4.0 | 4.0 | 0.00 | 0.00 | 0.00 | 80 | 1014.3 |
| 20260507114619 | 43 | 106 | 4.0 | 4.0 | 0.00 | 0.00 | 0.00 | 80 | 1014.3 |
| 20260507114116 | 43 | 95 | 3.0 | 4.0 | 0.00 | 0.00 | 0.00 | 82 | 1014.1 |
| 20260507113614 | 42 | 108 | 4.0 | 5.0 | 0.00 | 0.00 | 0.00 | 84 | 1014.2 |
| 20260507113110 | 42 | 111 | 4.0 | 5.0 | 0.00 | 0.00 | 0.00 | 84 | 1014.3 |
| 20260507112608 | 42 | 112 | 4.0 | 5.0 | 0.00 | 0.00 | 0.00 | 85 | 1014.2 |
| 20260507112059 | 41 | 125 | 4.0 | 4.0 | 0.00 | 0.00 | 0.00 | 85 | 1014.1 |
| 20260507111556 | 41 | 102 | 3.0 | 4.0 | 0.00 | 0.00 | 0.00 | 86 | 1014.2 |
| 20260507111053 | 41 | 105 | 4.0 | 5.0 | 0.00 | 0.00 | 0.00 | 86 | 1013.9 |
| 20260507110549 | 41 | 114 | 4.0 | 5.0 | 0.00 | 0.00 | 0.00 | 85 | 1014.0 |
| 20260507110046 | 41 | 114 | 3.0 | 4.0 | 0.00 | 0.00 | 0.00 | 84 | 1013.8 |
| 20260507105542 | 41 | 104 | 3.0 | 4.0 | 0.00 | 0.00 | 0.00 | 85 | 1013.7 |
| 20260507105038 | 41 | 97 | 3.0 | 4.0 | 0.00 | 0.00 | 0.00 | 85 | 1013.4 |
| 20260507104536 | 41 | 105 | 4.0 | 4.0 | 0.00 | 0.00 | 0.00 | 86 | 1013.3 |
| 20260507104032 | 41 | 95 | 3.0 | 4.0 | 0.00 | 0.00 | 0.00 | 86 | 1013.2 |
| 20260507103529 | 41 | 114 | 4.0 | 5.0 | 0.00 | 0.00 | 0.00 | 86 | 1013.4 |
| 20260507103025 | 41 | 109 | 4.0 | 5.0 | 0.00 | 0.00 | 0.00 | 86 | 1013.4 |
| 20260507102522 | 41 | 118 | 5.0 | 5.0 | 0.00 | 0.00 | 0.00 | 86 | 1013.2 |
| 20260507102018 | 41 | 112 | 4.0 | 5.0 | 0.00 | 0.00 | 0.00 | 85 | 1013.7 |
| 20260507101514 | 42 | 118 | 4.0 | 4.0 | 0.00 | 0.00 | 0.00 | 85 | 1013.7 |
| 20260507101010 | 42 | 94 | 3.0 | 4.0 | 0.00 | 0.00 | 0.00 | 86 | 1013.5 |
| 20260507100508 | 42 | 118 | 3.0 | 4.0 | 0.00 | 0.00 | 0.00 | 87 | 1013.5 |
| 20260507100006 | 42 | 101 | 4.0 | 4.0 | 0.00 | 0.00 | 0.00 | 88 | 1013.5 |
| 20260507095503 | 42 | 106 | 4.0 | 4.0 | 0.00 | 0.00 | 0.00 | 88 | 1013.2 |
| 20260507095000 | 42 | 103 | 3.0 | 4.0 | 0.00 | 0.00 | 0.00 | 89 | 1013.5 |
| 20260507094456 | 42 | 100 | 4.0 | 4.0 | 0.00 | 0.00 | 0.00 | 90 | 1013.3 |
| 20260507093953 | 42 | 112 | 3.0 | 3.0 | 0.00 | 0.00 | 0.00 | 92 | 1013.7 |
| 20260507093450 | 42 | 92 | 3.0 | 4.0 | 0.00 | 0.00 | 0.00 | 93 | 1013.5 |
| 20260507092949 | 42 | 96 | 4.0 | 4.0 | 0.00 | 0.00 | 0.00 | 95 | 1013.4 |
| 20260507092445 | 42 | 86 | 3.0 | 4.0 | 0.00 | 0.00 | 0.00 | 95 | 1013.4 |
| 20260507091942 | 42 | 98 | 3.0 | 4.0 | 0.00 | 0.00 | 0.00 | 96 | 1013.2 |
| 20260507091438 | 41 | 94 | 3.0 | 3.0 | 0.00 | 0.00 | 0.00 | 96 | 1013.4 |
| 20260507090934 | 41 | 100 | 4.0 | 4.0 | 0.00 | 0.00 | 0.00 | 96 | 1013.2 |
| 20260507090430 | 41 | 117 | 5.0 | 6.0 | 0.00 | 0.00 | 0.00 | 96 | 1013.1 |
| 20260507085927 | 41 | 120 | 5.0 | 6.0 | 0.00 | 0.00 | 0.00 | 96 | 1013.3 |
| 20260507085424 | 41 | 123 | 5.0 | 6.0 | 0.00 | 0.00 | 0.00 | 96 | 1013.2 |
| 20260507084921 | 41 | 122 | 5.0 | 6.0 | 0.00 | 0.00 | 0.00 | 96 | 1013.3 |
| 20260507084418 | 41 | 122 | 5.0 | 6.0 | 0.00 | 0.00 | 0.00 | 96 | 1013.0 |
| 20260507083915 | 41 | 121 | 5.0 | 6.0 | 0.00 | 0.00 | 0.00 | 96 | 1013.1 |
| 20260507083412 | 41 | 127 | 5.0 | 6.0 | 0.00 | 0.00 | 0.00 | 95 | 1013.0 |
| 20260507082908 | 41 | 122 | 5.0 | 6.0 | 0.00 | 0.00 | 0.00 | 95 | 1013.0 |
| 20260507082403 | 41 | 124 | 6.0 | 6.0 | 0.00 | 0.00 | 0.00 | 95 | 1012.9 |
| 20260507081901 | 41 | 127 | 5.0 | 6.0 | 0.00 | 0.00 | 0.00 | 95 | 1012.9 |
| 20260507081357 | 41 | 126 | 6.0 | 6.0 | 0.00 | 0.00 | 0.00 | 95 | 1012.7 |
| 20260507080854 | 41 | 130 | 6.0 | 6.0 | 0.00 | 0.00 | 0.00 | 95 | 1012.9 |
| 20260507080350 | 41 | 120 | 5.0 | 6.0 | 0.00 | 0.00 | 0.00 | 95 | 1013.0 |
| 20260507075845 | 41 | 127 | 5.0 | 6.0 | 0.00 | 0.00 | 0.00 | 94 | 1012.9 |
| 20260507075341 | 42 | 131 | 5.0 | 5.0 | 0.00 | 0.00 | 0.00 | 94 | 1012.8 |
| 20260507074838 | 42 | 127 | 5.0 | 6.0 | 0.00 | 0.00 | 0.00 | 94 | 1012.9 |
| 20260507074336 | 42 | 124 | 5.0 | 7.0 | 0.00 | 0.00 | 0.00 | 94 | 1013.0 |
| 20260507073833 | 42 | 123 | 5.0 | 5.0 | 0.00 | 0.00 | 0.00 | 94 | 1013.0 |
| 20260507073329 | 42 | 122 | 5.0 | 5.0 | 0.00 | 0.00 | 0.00 | 94 | 1012.9 |
| 20260507072826 | 42 | 120 | 5.0 | 5.0 | 0.00 | 0.00 | 0.00 | 94 | 1012.8 |
| 20260507072324 | 42 | 124 | 5.0 | 5.0 | 0.00 | 0.00 | 0.00 | 93 | 1013.1 |
| 20260507071821 | 42 | 130 | 5.0 | 5.0 | 0.00 | 0.00 | 0.00 | 93 | 1013.1 |
| 20260507071318 | 42 | 134 | 4.0 | 5.0 | 0.00 | 0.00 | 0.00 | 93 | 1013.1 |
| 20260507070814 | 42 | 131 | 5.0 | 6.0 | 0.00 | 0.00 | 0.00 | 93 | 1013.0 |
| 20260507070312 | 43 | 136 | 5.0 | 6.0 | 0.00 | 0.00 | 0.00 | 93 | 1012.9 |
| 20260507065808 | 43 | 137 | 5.0 | 6.0 | 0.00 | 0.00 | 0.00 | 92 | 1013.2 |
| 20260507065306 | 43 | 130 | 5.0 | 6.0 | 0.00 | 0.00 | 0.00 | 92 | 1012.9 |
| 20260507064802 | 43 | 136 | 6.0 | 6.0 | 0.00 | 0.00 | 0.00 | 91 | 1012.8 |
| 20260507064301 | 44 | 123 | 5.0 | 5.0 | 0.00 | 0.00 | 0.00 | 91 | 1012.8 |
| 20260507063758 | 44 | 121 | 5.0 | 6.0 | 0.00 | 0.00 | 0.00 | 91 | 1013.2 |
| 20260507063255 | 44 | 113 | 5.0 | 6.0 | 0.00 | 0.00 | 0.00 | 91 | 1012.8 |
| 20260507062752 | 44 | 120 | 6.0 | 6.0 | 0.00 | 0.00 | 0.00 | 90 | 1013.0 |
| 20260507062249 | 44 | 118 | 5.0 | 5.0 | 0.00 | 0.00 | 0.00 | 90 | 1012.9 |
| 20260507061747 | 44 | 117 | 4.0 | 5.0 | 0.00 | 0.00 | 0.00 | 89 | 1013.1 |
| 20260507061244 | 44 | 113 | 5.0 | 5.0 | 0.00 | 0.00 | 0.00 | 89 | 1013.0 |
| 20260507060743 | 44 | 113 | 4.0 | 5.0 | 0.00 | 0.00 | 0.00 | 88 | 1013.2 |
| 20260507060239 | 44 | 111 | 4.0 | 5.0 | 0.00 | 0.00 | 0.00 | 88 | 1013.2 |
| 20260507055735 | 44 | 125 | 5.0 | 6.0 | 0.00 | 0.00 | 0.00 | 88 | 1013.3 |
| 20260507055231 | 44 | 124 | 5.0 | 5.0 | 0.00 | 0.00 | 0.00 | 88 | 1013.0 |
| 20260507054727 | 44 | 113 | 4.0 | 5.0 | 0.00 | 0.00 | 0.00 | 87 | 1013.0 |
| 20260507054224 | 45 | 124 | 4.0 | 5.0 | 0.00 | 0.00 | 0.00 | 86 | 1013.1 |
| 20260507053722 | 45 | 123 | 5.0 | 6.0 | 0.00 | 0.00 | 0.00 | 86 | 1013.2 |
| 20260507053219 | 45 | 125 | 5.0 | 6.0 | 0.00 | 0.00 | 0.00 | 84 | 1013.1 |
| 20260507052718 | 45 | 129 | 5.0 | 5.0 | 0.00 | 0.00 | 0.00 | 84 | 1013.2 |
| 20260507052214 | 45 | 111 | 4.0 | 5.0 | 0.00 | 0.00 | 0.00 | 84 | 1013.2 |
| 20260507051712 | 46 | 123 | 5.0 | 5.0 | 0.00 | 0.00 | 0.00 | 82 | 1013.2 |
| 20260507051208 | 46 | 136 | 5.0 | 5.0 | 0.00 | 0.00 | 0.00 | 82 | 1013.4 |
| 20260507050705 | 46 | 126 | 5.0 | 5.0 | 0.00 | 0.00 | 0.00 | 81 | 1012.9 |
| 20260507050202 | 46 | 121 | 5.0 | 5.0 | 0.00 | 0.00 | 0.00 | 82 | 1012.9 |
| 20260507045659 | 46 | 114 | 4.0 | 5.0 | 0.00 | 0.00 | 0.00 | 81 | 1013.2 |
| 20260507045156 | 46 | 130 | 5.0 | 5.0 | 0.00 | 0.00 | 0.00 | 80 | 1013.3 |
| 20260507044652 | 46 | 119 | 5.0 | 6.0 | 0.00 | 0.00 | 0.00 | 81 | 1013.2 |
| 20260507044149 | 46 | 119 | 5.0 | 5.0 | 0.00 | 0.00 | 0.00 | 81 | 1013.4 |
| 20260507043645 | 46 | 115 | 4.0 | 4.0 | 0.00 | 0.00 | 0.00 | 81 | 1013.3 |
| 20260507043142 | 46 | 117 | 5.0 | 5.0 | 0.00 | 0.00 | 0.00 | 82 | 1013.3 |
| 20260507042638 | 46 | 126 | 5.0 | 6.0 | 0.00 | 0.00 | 0.00 | 80 | 1013.1 |
| 20260507042134 | 46 | 131 | 5.0 | 6.0 | 0.00 | 0.00 | 0.00 | 82 | 1013.7 |
| 20260507041630 | 46 | 124 | 4.0 | 5.0 | 0.00 | 0.00 | 0.00 | 82 | 1013.3 |
| 20260507041121 | 46 | 129 | 5.0 | 6.0 | 0.00 | 0.00 | 0.00 | 82 | 1013.5 |
| 20260507040619 | 47 | 134 | 5.0 | 6.0 | 0.00 | 0.00 | 0.00 | 82 | 1013.3 |
| 20260507040115 | 47 | 139 | 5.0 | 6.0 | 0.00 | 0.00 | 0.00 | 81 | 1013.5 |
| 20260507035611 | 47 | 125 | 6.0 | 6.0 | 0.00 | 0.00 | 0.00 | 82 | 1013.2 |
| 20260507035108 | 47 | 115 | 5.0 | 6.0 | 0.00 | 0.00 | 0.00 | 83 | 1013.1 |
| 20260507034604 | 47 | 116 | 5.0 | 6.0 | 0.00 | 0.00 | 0.00 | 84 | 1013.2 |
| 20260507034102 | 47 | 110 | 5.0 | 6.0 | 0.00 | 0.00 | 0.00 | 83 | 1013.1 |
| 20260507033600 | 47 | 105 | 4.0 | 5.0 | 0.00 | 0.00 | 0.00 | 84 | 1013.1 |
| 20260507033056 | 47 | 116 | 5.0 | 5.0 | 0.00 | 0.00 | 0.00 | 81 | 1013.0 |
| 20260507032554 | 48 | 120 | 5.0 | 6.0 | 0.00 | 0.00 | 0.00 | 79 | 1013.4 |
| 20260507032050 | 48 | 127 | 5.0 | 6.0 | 0.00 | 0.00 | 0.00 | 77 | 1013.1 |
| 20260507031547 | 48 | 124 | 5.0 | 6.0 | 0.00 | 0.00 | 0.00 | 76 | 1013.4 |
| 20260507031044 | 49 | 131 | 5.0 | 6.0 | 0.00 | 0.00 | 0.00 | 76 | 1013.4 |
| 20260507030540 | 49 | 117 | 5.0 | 6.0 | 0.00 | 0.00 | 0.00 | 76 | 1013.2 |
| 20260507030038 | 49 | 124 | 5.0 | 6.0 | 0.00 | 0.00 | 0.00 | 76 | 1013.2 |
| 20260507025535 | 49 | 122 | 7.0 | 7.0 | 0.00 | 0.00 | 0.00 | 78 | 1013.1 |
| 20260507025032 | 49 | 118 | 6.0 | 6.0 | 0.00 | 0.00 | 0.00 | 77 | 1013.3 |
| 20260507024530 | 50 | 113 | 6.0 | 7.0 | 0.00 | 0.00 | 0.00 | 77 | 1013.0 |
| 20260507024027 | 50 | 122 | 5.0 | 6.0 | 0.00 | 0.00 | 0.00 | 76 | 1013.3 |
| 20260507023522 | 50 | 120 | 5.0 | 5.0 | 0.00 | 0.00 | 0.00 | 75 | 1013.0 |
| 20260507023021 | 50 | 113 | 6.0 | 6.0 | 0.00 | 0.00 | 0.00 | 74 | 1012.9 |
| 20260507022517 | 50 | 118 | 5.0 | 5.0 | 0.00 | 0.00 | 0.00 | 73 | 1013.1 |
| 20260507022012 | 50 | 119 | 5.0 | 6.0 | 0.00 | 0.00 | 0.00 | 73 | 1013.1 |
| 20260507021508 | 51 | 115 | 4.0 | 5.0 | 0.00 | 0.00 | 0.00 | 73 | 1013.1 |
| 20260507021005 | 51 | 112 | 4.0 | 4.0 | 0.00 | 0.00 | 0.00 | 73 | 1012.9 |
| 20260507020502 | 51 | 100 | 3.0 | 4.0 | 0.00 | 0.00 | 0.00 | 72 | 1013.0 |
| 20260507015959 | 51 | 100 | 4.0 | 4.0 | 0.00 | 0.00 | 0.00 | 71 | 1012.7 |
| 20260507015458 | 51 | 110 | 4.0 | 4.0 | 0.00 | 0.00 | 0.00 | 71 | 1012.9 |
| 20260507014955 | 51 | 101 | 4.0 | 4.0 | 0.00 | 0.00 | 0.00 | 69 | 1012.8 |
| 20260507014451 | 52 | 106 | 4.0 | 4.0 | 0.00 | 0.00 | 0.00 | 68 | 1012.7 |
| 20260507013947 | 52 | 106 | 4.0 | 5.0 | 0.00 | 0.00 | 0.00 | 68 | 1012.8 |
| 20260507013444 | 52 | 101 | 4.0 | 4.0 | 0.00 | 0.00 | 0.00 | 67 | 1012.5 |
| 20260507012941 | 52 | 113 | 4.0 | 4.0 | 0.00 | 0.00 | 0.00 | 65 | 1012.7 |
| 20260507012438 | 53 | 105 | 4.0 | 4.0 | 0.00 | 0.00 | 0.00 | 66 | 1012.8 |
| 20260507011934 | 53 | 110 | 4.0 | 4.0 | 0.00 | 0.00 | 0.00 | 65 | 1012.8 |
| 20260507011431 | 53 | 106 | 3.0 | 4.0 | 0.00 | 0.00 | 0.00 | 66 | 1012.4 |
| 20260507010926 | 53 | 103 | 3.0 | 4.0 | 0.00 | 0.00 | 0.00 | 66 | 1012.5 |
| 20260507010421 | 53 | 91 | 2.0 | 3.0 | 0.00 | 0.00 | 0.00 | 66 | 1012.3 |
| 20260507005918 | 53 | 101 | 4.0 | 4.0 | 0.00 | 0.00 | 0.00 | 68 | 1012.3 |
| 20260507005415 | 53 | 112 | 4.0 | 4.0 | 0.00 | 0.00 | 0.00 | 66 | 1012.4 |
| 20260507004912 | 54 | 103 | 3.0 | 3.0 | 0.00 | 0.00 | 0.00 | 64 | 1012.5 |
| 20260507004409 | 54 | 111 | 4.0 | 4.0 | 0.00 | 0.00 | 0.00 | 65 | 1012.4 |
| 20260507003906 | 54 | 109 | 3.0 | 4.0 | 0.00 | 0.00 | 0.00 | 63 | 1012.3 |
| 20260507003401 | 54 | 104 | 3.0 | 3.0 | 0.00 | 0.00 | 0.00 | 61 | 1012.3 |
| 20260507002857 | 55 | 115 | 4.0 | 5.0 | 0.00 | 0.00 | 0.00 | 65 | 1012.2 |
| 20260507002353 | 55 | 109 | 3.0 | 3.0 | 0.00 | 0.00 | 0.00 | 61 | 1012.3 |
| 20260507001850 | 55 | 117 | 4.0 | 4.0 | 0.00 | 0.00 | 0.00 | 60 | 1012.2 |
| 20260507001347 | 56 | 107 | 3.0 | 4.0 | 0.00 | 0.00 | 0.00 | 65 | 1012.2 |
| 20260507000844 | 56 | 135 | 5.0 | 5.0 | 0.00 | 0.00 | 0.00 | 60 | 1012.2 |
| 20260507000339 | 56 | 115 | 4.0 | 5.0 | 0.00 | 0.00 | 0.00 | 61 | 1011.8 |
| 20260506235836 | 57 | 152 | 3.0 | 4.0 | 0.00 | 0.00 | 0.00 | 57 | 1012.1 |
| 20260506235333 | 57 | 129 | 3.0 | 5.0 | 0.00 | 0.00 | 0.00 | 58 | 1011.9 |
| 20260506234829 | 57 | 96 | 2.0 | 5.0 | 0.00 | 0.00 | 0.00 | 58 | 1012.1 |
| 20260506234327 | 57 | 104 | 9.0 | 9.0 | 0.00 | 0.00 | 0.00 | 60 | 1011.7 |
| 20260506233824 | 57 | 127 | 7.0 | 7.0 | 0.00 | 0.00 | 0.00 | 59 | 1011.8 |
| 20260506233319 | 57 | 153 | 3.0 | 5.0 | 0.00 | 0.00 | 0.00 | 60 | 1011.7 |
| 20260506232817 | 58 | 136 | 6.0 | 6.0 | 0.00 | 0.00 | 0.00 | 61 | 1011.7 |
| 20260506232312 | 58 | 126 | 3.0 | 5.0 | 0.00 | 0.00 | 0.00 | 54 | 1011.7 |
| 20260506231809 | 58 | 127 | 4.0 | 5.0 | 0.00 | 0.00 | 0.00 | 59 | 1011.7 |
| 20260506231307 | 58 | 137 | 5.0 | 5.0 | 0.00 | 0.00 | 0.00 | 58 | 1011.7 |
| 20260506230804 | 58 | 135 | 4.0 | 5.0 | 0.00 | 0.00 | 0.00 | 56 | 1011.3 |
| 20260506230301 | 58 | 86 | 4.0 | 6.0 | 0.00 | 0.00 | 0.00 | 55 | 1011.2 |
| 20260506225757 | 58 | 120 | 4.0 | 7.0 | 0.00 | 0.00 | 0.00 | 56 | 1011.0 |
| 20260506225254 | 58 | 126 | 2.0 | 5.0 | 0.00 | 0.00 | 0.00 | 54 | 1011.2 |
| 20260506224745 | 58 | 110 | 4.0 | 5.0 | 0.00 | 0.00 | 0.00 | 57 | 1011.4 |
| 20260506224243 | 58 | 126 | 2.0 | 5.0 | 0.00 | 0.00 | 0.00 | 55 | 1011.6 |
| 20260506223738 | 58 | 120 | 4.0 | 5.0 | 0.00 | 0.00 | 0.00 | 56 | 1011.5 |
| 20260506223234 | 58 | 154 | 4.0 | 5.0 | 0.00 | 0.00 | 0.00 | 54 | 1011.2 |
| 20260506222731 | 58 | 145 | 3.0 | 6.0 | 0.00 | 0.00 | 0.00 | 59 | 1011.4 |
| 20260506222226 | 58 | 100 | 2.0 | 9.0 | 0.00 | 0.00 | 0.00 | 54 | 1011.6 |
| 20260506221725 | 58 | 63 | 2.0 | 4.0 | 0.00 | 0.00 | 0.00 | 53 | 1011.5 |
| 20260506221223 | 59 | 124 | 5.0 | 6.0 | 0.00 | 0.00 | 0.00 | 56 | 1011.6 |
| 20260506220720 | 59 | 111 | 4.0 | 6.0 | 0.00 | 0.00 | 0.00 | 56 | 1011.5 |
| 20260506220214 | 59 | 94 | 3.0 | 5.0 | 0.00 | 0.00 | 0.00 | 54 | 1011.4 |
| 20260506215711 | 59 | 80 | 2.0 | 5.0 | 0.00 | 0.00 | 0.00 | 51 | 1011.7 |
| 20260506215207 | 59 | 108 | 3.0 | 7.0 | 0.00 | 0.00 | 0.00 | 50 | 1011.5 |
| 20260506214704 | 59 | 115 | 3.0 | 5.0 | 0.00 | 0.00 | 0.00 | 50 | 1011.8 |
| 20260506214201 | 59 | 121 | 6.0 | 6.0 | 0.00 | 0.00 | 0.00 | 50 | 1011.7 |
| 20260506213659 | 59 | 119 | 3.0 | 5.0 | 0.00 | 0.00 | 0.00 | 50 | 1011.7 |
| 20260506213156 | 59 | 93 | 2.0 | 5.0 | 0.00 | 0.00 | 0.00 | 53 | 1012.0 |
| 20260506212653 | 59 | 121 | 6.0 | 6.0 | 0.00 | 0.00 | 0.00 | 48 | 1011.6 |
| 20260506212154 | 59 | 111 | 4.0 | 5.0 | 0.00 | 0.00 | 0.00 | 55 | 1011.7 |
| 20260506211650 | 59 | 104 | 3.0 | 7.0 | 0.00 | 0.00 | 0.00 | 49 | 1011.6 |
| 20260506211146 | 59 | 110 | 6.0 | 6.0 | 0.00 | 0.00 | 0.00 | 50 | 1011.4 |
| 20260506210643 | 60 | 151 | 3.0 | 7.0 | 0.00 | 0.00 | 0.00 | 51 | 1011.7 |
| 20260506210140 | 60 | 116 | 3.0 | 6.0 | 0.00 | 0.00 | 0.00 | 53 | 1011.6 |
| 20260506205638 | 61 | 131 | 4.0 | 5.0 | 0.00 | 0.00 | 0.00 | 49 | 1011.4 |
| 20260506205137 | 62 | 131 | 3.0 | 5.0 | 0.00 | 0.00 | 0.00 | 49 | 1011.4 |
| 20260506204636 | 62 | 86 | 2.0 | 5.0 | 0.00 | 0.00 | 0.00 | 54 | 1011.3 |
| 20260506204132 | 61 | 134 | 3.0 | 5.0 | 0.00 | 0.00 | 0.00 | 53 | 1011.1 |
| 20260506203631 | 61 | 139 | 3.0 | 9.0 | 0.00 | 0.00 | 0.00 | 56 | 1011.2 |
| 20260506203127 | 61 | 99 | 6.0 | 6.0 | 0.00 | 0.00 | 0.00 | 54 | 1011.2 |
| 20260506202625 | 61 | 74 | 3.0 | 6.0 | 0.00 | 0.00 | 0.00 | 52 | 1011.6 |
| 20260506202121 | 60 | 178 | 3.0 | 6.0 | 0.00 | 0.00 | 0.00 | 53 | 1011.2 |
| 20260506201618 | 61 | 128 | 8.0 | 11.0 | 0.00 | 0.00 | 0.00 | 50 | 1011.4 |
| 20260506201115 | 61 | 116 | 5.0 | 8.0 | 0.00 | 0.00 | 0.00 | 52 | 1011.2 |
| 20260506200611 | 60 | 86 | 3.0 | 4.0 | 0.00 | 0.00 | 0.00 | 51 | 1011.3 |
| 20260506200108 | 60 | 155 | 3.0 | 8.0 | 0.00 | 0.00 | 0.00 | 52 | 1011.5 |
| 20260506195604 | 60 | 88 | 4.0 | 11.0 | 0.00 | 0.00 | 0.00 | 52 | 1011.3 |
| 20260506195101 | 60 | 132 | 1.0 | 7.0 | 0.00 | 0.00 | 0.00 | 48 | 1011.5 |
| 20260506194559 | 60 | 97 | 2.0 | 4.0 | 0.00 | 0.00 | 0.00 | 46 | 1011.4 |
| 20260506194055 | 61 | 110 | 8.0 | 9.0 | 0.00 | 0.00 | 0.00 | 54 | 1011.4 |
| 20260506193553 | 61 | 104 | 3.0 | 10.0 | 0.00 | 0.00 | 0.00 | 52 | 1011.5 |
| 20260506193050 | 61 | 96 | 4.0 | 9.0 | 0.00 | 0.00 | 0.00 | 45 | 1011.3 |
| 20260506192547 | 62 | 113 | 2.0 | 4.0 | 0.00 | 0.00 | 0.00 | 48 | 1011.7 |
| 20260506192042 | 62 | 119 | 3.0 | 7.0 | 0.00 | 0.00 | 0.00 | 47 | 1011.3 |
| 20260506191539 | 63 | 55 | 5.0 | 6.0 | 0.00 | 0.00 | 0.00 | 45 | 1011.0 |
| 20260506191035 | 63 | 96 | 5.0 | 8.0 | 0.00 | 0.00 | 0.00 | 52 | 1011.1 |
| 20260506190532 | 61 | 160 | 4.0 | 5.0 | 0.00 | 0.00 | 0.00 | 58 | 1011.1 |
| 20260506190030 | 60 | 139 | 3.0 | 8.0 | 0.00 | 0.00 | 0.00 | 56 | 1010.9 |
| 20260506185527 | 61 | 107 | 10.0 | 11.0 | 0.00 | 0.00 | 0.00 | 48 | 1011.0 |
| 20260506185023 | 61 | 358 | 2.0 | 9.0 | 0.00 | 0.00 | 0.00 | 52 | 1011.2 |
| 20260506184521 | 62 | 58 | 4.0 | 12.0 | 0.00 | 0.00 | 0.00 | 48 | 1011.1 |
| 20260506184018 | 61 | 191 | 3.0 | 8.0 | 0.00 | 0.00 | 0.00 | 55 | 1011.1 |
| 20260506183513 | 61 | 75 | 4.0 | 7.0 | 0.00 | 0.00 | 0.00 | 54 | 1011.1 |
| 20260506183010 | 61 | 166 | 3.0 | 3.0 | 0.00 | 0.00 | 0.00 | 53 | 1011.0 |
| 20260506182508 | 62 | 45 | 5.0 | 9.0 | 0.00 | 0.00 | 0.00 | 51 | 1011.0 |
| 20260506182004 | 60 | 122 | 3.0 | 5.0 | 0.00 | 0.00 | 0.00 | 53 | 1011.0 |
| 20260506181502 | 60 | 8 | 2.0 | 12.0 | 0.00 | 0.00 | 0.00 | 54 | 1011.0 |
| 20260506180959 | 60 | 137 | 5.0 | 7.0 | 0.00 | 0.00 | 0.00 | 51 | 1011.2 |
| 20260506180456 | 61 | 353 | 2.0 | 7.0 | 0.00 | 0.00 | 0.00 | 52 | 1011.0 |
| 20260506175952 | 61 | 198 | 3.0 | 6.0 | 0.00 | 0.00 | 0.00 | 57 | 1011.2 |
| 20260506175449 | 60 | 174 | 3.0 | 10.0 | 0.00 | 0.00 | 0.00 | 54 | 1011.1 |
| 20260506174945 | 59 | 78 | 7.0 | 11.0 | 0.00 | 0.00 | 0.00 | 51 | 1011.3 |
| 20260506174444 | 59 | 91 | 2.0 | 8.0 | 0.00 | 0.00 | 0.00 | 53 | 1011.7 |
| 20260506173940 | 58 | 76 | 7.0 | 9.0 | 0.00 | 0.00 | 0.00 | 58 | 1011.3 |
| 20260506173438 | 58 | 106 | 6.0 | 8.0 | 0.00 | 0.00 | 0.00 | 56 | 1011.6 |
| 20260506172934 | 58 | 112 | 6.0 | 8.0 | 0.00 | 0.00 | 0.00 | 56 | 1011.5 |
| 20260506172431 | 58 | 97 | 8.0 | 10.0 | 0.00 | 0.00 | 0.00 | 61 | 1011.7 |
| 20260506171923 | 57 | 129 | 4.0 | 6.0 | 0.00 | 0.00 | 0.00 | 54 | 1011.5 |
| 20260506171420 | 57 | 85 | 2.0 | 9.0 | 0.00 | 0.00 | 0.00 | 53 | 1011.8 |
| 20260506170917 | 57 | 92 | 5.0 | 7.0 | 0.00 | 0.00 | 0.00 | 63 | 1011.6 |
| 20260506170413 | 58 | 139 | 2.0 | 6.0 | 0.00 | 0.00 | 0.00 | 57 | 1011.6 |
| 20260506165907 | 58 | 43 | 3.0 | 6.0 | 0.00 | 0.00 | 0.00 | 59 | 1011.5 |
| 20260506165405 | 57 | 175 | 3.0 | 8.0 | 0.00 | 0.00 | 0.00 | 60 | 1011.8 |
| 20260506164900 | 56 | 125 | 7.0 | 8.0 | 0.00 | 0.00 | 0.00 | 59 | 1011.9 |
| 20260506164357 | 56 | 7 | 1.0 | 7.0 | 0.00 | 0.00 | 0.00 | 56 | 1012.0 |
| 20260506163855 | 56 | 75 | 3.0 | 10.0 | 0.00 | 0.00 | 0.00 | 58 | 1011.9 |
| 20260506163349 | 56 | 136 | 5.0 | 6.0 | 0.00 | 0.00 | 0.00 | 60 | 1011.9 |
| 20260506162844 | 56 | 190 | 3.0 | 9.0 | 0.00 | 0.00 | 0.00 | 61 | 1012.2 |
| 20260506162343 | 56 | 120 | 7.0 | 10.0 | 0.00 | 0.00 | 0.00 | 61 | 1011.9 |
| 20260506161840 | 55 | 162 | 4.0 | 9.0 | 0.00 | 0.00 | 0.00 | 63 | 1011.9 |
| 20260506161337 | 55 | 97 | 4.0 | 5.0 | 0.00 | 0.00 | 0.00 | 63 | 1011.9 |
| 20260506160830 | 55 | 115 | 6.0 | 11.0 | 0.00 | 0.00 | 0.00 | 64 | 1011.7 |
| 20260506160326 | 55 | 1 | 2.0 | 9.0 | 0.00 | 0.00 | 0.00 | 64 | 1011.7 |
| 20260506155825 | 55 | 81 | 6.0 | 9.0 | 0.00 | 0.00 | 0.00 | 60 | 1011.5 |